Wind_Speed
9 7 5 4 3 1 1 0 1 2 3 4 4 4 5 5 5 5 5 5 6 7 8 8 9 9 9 9 10 11 11 11 11 10 10 11 11 11 11 11 11 12 12 13 14 14 15 15 15
10 8 7 6 4 2 2 2 2 3 3 3 3 3 4 4 5 5 5 5 6 7 8 8 9 8 9 9 10 10 10 10 10 10 10 11 11 11 12 11 11 12 12 13 13 15 16 16 15
11 10 8 7 6 4 3 3 3 3 3 3 3 3 4 4 4 4 5 6 7 8 8 8 8 8 8 8 9 10 10 10 10 10 11 11 11 11 12 12 13 13 13 14 15 15 15 16 16
13 11 9 8 7 6 4 3 4 4 3 4 4 5 5 5 5 5 5 6 7 8 8 8 7 7 8 9 9 9 10 10 10 11 11 11 11 11 11 12 13 14 14 15 15 16 16 16 17
15 13 11 10 8 7 5 4 5 4 5 5 5 6 6 5 5 5 6 7 7 7 8 7 7 8 8 9 9 10 11 11 11 11 12 11 11 12 12 13 14 15 15 15 15 16 16 16 17
17 14 13 11 9 7 6 5 5 5 4 5 6 7 7 6 6 6 7 7 8 8 7 7 7 8 8 9 10 10 11 11 11 11 12 12 12 13 13 14 15 15 15 16 16 16 16 17 17
19 16 14 13 10 8 7 6 6 5 6 6 6 8 8 7 6 6 7 7 8 8 7 7 7 8 9 9 9 10 10 11 11 12 12 13 13 14 14 15 16 16 16 17 17 17 17 17 17
20 17 15 14 11 10 8 6 5 5 5 5 6 7 7 7 8 7 7 7 7 7 7 7 8 8 9 9 9 10 11 11 12 12 13 13 14 15 15 16 16 17 17 17 17 17 17 17 17
20 18 16 15 12 10 9 7 6 6 5 6 6 7 7 8 8 8 8 8 8 8 8 8 8 8 9 9 10 11 12 12 12 12 13 14 15 16 16 17 17 17 17 18 18 18 17 17 17
21 19 17 16 14 11 9 8 7 6 6 7 7 8 8 8 8 8 8 8 8 8 8 9 9 9 9 10 11 12 12 12 12 13 14 15 16 16 17 17 17 18 18 18 18 18 18 17 17
23 20 18 16 14 12 10 9 8 7 7 7 8 8 8 8 9 8 8 8 8 9 9 9 9 10 10 11 12 12 12 12 12 13 14 15 16 17 17 17 18 18 18 18 18 19 18 18 18
22 21 19 16 15 13 11 10 8 8 8 8 8 8 8 9 9 9 9 8 8 9 9 9 10 10 11 11 12 12 12 12 13 14 15 16 16 17 18 18 18 18 18 18 19 19 19 17 18
24 22 20 17 15 13 11 10 8 8 8 8 8 8 8 9 10 9 9 9 9 9 10 10 10 11 12 12 12 12 12 13 14 15 15 16 17 17 18 19 19 19 18 19 19 18 18 18 18
24 23 21 18 16 14 12 10 9 8 7 8 8 8 9 9 9 8 9 9 10 10 10 10 11 12 12 13 13 13 13 13 14 15 16 17 17 18 19 19 19 18 18 19 18 18 17 17 18
24 22 20 18 16 14 12 10 9 8 7 8 8 7 8 9 8 9 9 10 10 11 11 11 12 13 13 13 13 13 13 14 15 16 16 16 17 18 19 19 18 18 19 18 17 17 16 16 17
23 22 20 18 16 13 11 10 9 8 7 7 8 8 8 8 8 9 9 9 10 11 11 12 12 13 13 14 14 14 14 15 15 16 16 17 17 18 19 19 18 18 18 18 16 16 15 15 15
23 21 20 17 15 12 11 9 8 7 7 7 7 7 7 7 8 8 9 9 10 11 11 12 12 13 13 13 14 14 14 15 15 16 17 17 18 18 18 18 18 18 18 17 16 15 14 13 13
22 21 19 16 14 11 9 8 7 7 7 7 6 6 6 6 7 9 10 10 10 11 11 12 12 13 13 13 13 14 14 15 15 16 17 17 18 18 18 17 17 18 17 16 15 13 12 12 12
22 20 18 15 13 10 9 8 7 6 5 4 4 5 5 6 7 9 9 9 10 10 11 11 12 13 13 13 13 13 14 14 14 15 17 17 17 18 17 17 17 17 17 15 13 12 11 10 11
21 18 16 14 12 10 9 8 6 5 3 3 4 5 6 6 7 8 9 9 9 10 11 12 12 13 13 13 13 13 14 14 14 15 16 17 17 17 17 16 16 16 16 15 13 12 10 9 9
18 17 15 13 11 10 9 7 5 3 3 3 4 5 6 7 8 8 8 9 9 10 11 11 12 12 12 13 13 13 13 14 14 15 16 17 17 17 17 16 16 16 15 14 13 11 9 7 6
17 17 15 14 12 11 9 7 5 3 2 3 4 5 7 8 8 8 8 8 9 10 11 11 12 13 13 13 13 13 13 14 14 15 16 16 17 17 17 16 16 15 14 13 12 10 7 5 4
18 16 15 13 12 10 9 7 5 3 2 3 4 5 6 7 8 8 8 8 9 10 11 12 12 12 13 13 13 13 13 13 14 15 16 16 16 17 17 16 16 15 14 12 11 9 7 4 3
17 15 14 12 11 10 9 7 5 3 2 3 4 5 6 7 7 8 8 9 9 10 11 12 12 12 13 13 13 13 13 13 14 14 15 16 16 16 16 16 15 15 14 12 10 9 7 4 2
15 14 14 12 12 10 8 6 5 3 3 3 5 6 7 8 8 8 9 9 10 11 12 12 12 12 13 13 13 13 13 13 14 14 15 15 16 15 15 15 15 14 13 12 10 8 7 5 1
13 14 13 12 11 9 7 6 4 4 3 4 5 6 7 7 8 8 9 9 10 11 11 12 12 13 13 13 13 14 14 14 14 15 15 15 15 15 15 15 15 14 13 12 10 8 7 4 2
12 11 11 11 10 8 7 5 5 4 4 5 5 6 6 6 7 8 8 9 10 11 11 12 12 13 13 13 14 14 14 14 15 15 15 15 15 15 15 14 14 14 13 11 11 9 7 5 3
11 11 11 11 10 8 7 6 4 4 4 5 5 5 6 6 7 8 8 9 10 11 11 12 13 13 13 13 14 14 14 14 15 15 15 15 15 15 15 14 14 14 13 11 10 10 8 6 4
11 10 10 9 9 8 7 6 5 4 4 4 4 5 6 6 7 7 8 9 10 11 11 12 13 14 14 14 14 15 15 15 16 16 16 16 16 16 15 14 14 14 13 12 11 10 9 7 5
10 9 9 9 8 8 7 6 5 4 4 4 5 5 6 7 7 8 9 10 11 11 12 13 13 14 14 15 15 15 15 16 16 16 16 16 17 16 16 15 14 14 13 12 11 10 9 8 6
Wind_Direction
237 239 243 249 255 275 314 341 135 159 171 173 185 197 211 223 236 251 263 276 286 295 301 305 307 309 309 310 314 316 316 318 316 315 313 312 310 307 303 298 292 288 283 276 271 268 264 262 260
234 235 237 245 236 238 266 271 213 189 180 190 207 210 220 235 248 259 274 283 291 298 301 303 304 305 306 311 315 317 318 317 314 314 312 311 309 307 304 301 297 293 287 281 277 273 268 264 260
232 229 230 229 227 236 260 241 214 203 208 218 244 253 245 253 258 270 280 289 298 303 303 303 303 304 309 313 314 316 317 315 312 311 310 308 306 304 303 300 298 294 289 282 278 275 271 265 260
229 226 223 224 230 231 234 227 215 215 242 259 267 266 257 259 259 272 287 296 301 302 301 301 301 305 309 311 311 312 312 311 310 309 309 309 308 305 303 301 300 295 290 286 280 276 272 266 261
227 223 220 224 230 234 230 228 221 237 259 262 264 264 261 260 268 282 294 297 299 301 301 298 298 304 308 308 307 308 309 309 309 309 310 310 309 308 306 304 302 298 293 289 286 280 274 269 262
223 220 223 225 229 231 232 234 238 252 269 270 268 266 269 266 272 284 291 295 299 305 306 301 299 301 304 305 305 307 308 309 310 311 312 312 311 310 310 309 305 301 297 294 289 282 277 273 264
222 220 223 227 226 230 236 239 243 254 266 274 277 270 269 266 274 286 295 298 302 306 305 301 300 301 302 304 306 307 308 309 311 311 312 312 312 312 312 311 307 303 299 296 291 286 279 274 267
219 219 220 221 221 227 232 236 241 256 267 270 284 277 268 269 275 285 295 301 301 303 302 297 300 302 304 304 306 308 308 309 310 310 311 311 311 313 313 312 309 304 300 296 292 287 281 276 268
214 215 215 216 217 222 228 231 240 256 261 264 272 273 273 273 278 281 289 295 294 296 299 299 300 301 302 304 307 309 310 310 309 310 310 310 311 312 312 311 309 305 301 297 293 289 284 277 268
215 213 213 214 216 220 225 229 238 248 254 261 267 271 271 273 280 285 285 290 291 293 296 300 299 300 301 304 308 309 310 311 311 312 311 311 312 312 312 310 308 305 301 297 294 290 285 277 270
212 211 210 211 214 219 225 230 237 246 253 264 265 268 268 271 282 288 292 294 295 296 297 297 294 296 300 304 308 309 310 311 311 312 313 314 313 313 312 310 309 307 302 298 294 289 285 276 268
211 211 210 212 214 218 222 223 234 248 256 262 262 266 271 273 286 294 298 299 299 299 300 298 294 296 301 306 310 310 311 310 311 313 315 315 315 314 313 312 310 308 303 300 295 290 285 276 266
207 207 208 209 212 218 221 224 235 253 256 261 265 270 274 282 289 297 300 299 298 297 299 299 295 298 303 308 311 311 311 311 311 313 315 316 316 316 316 315 313 310 306 302 298 292 284 277 268
203 205 207 209 212 216 222 232 245 251 255 260 266 273 275 282 286 291 295 298 299 298 299 299 298 301 305 309 310 310 312 313 313 315 317 318 318 318 318 317 316 313 309 305 300 293 285 277 267
200 202 205 207 211 214 222 231 241 252 256 259 268 277 281 285 287 293 297 296 298 300 300 299 302 305 307 308 309 310 313 314 314 317 320 321 321 320 320 319 318 315 312 309 304 295 287 278 268
196 199 202 205 210 215 220 229 233 244 255 259 265 275 283 290 293 297 300 299 301 301 302 304 305 306 308 307 308 309 312 315 316 318 322 323 323 323 322 322 321 319 316 311 307 299 290 279 268
192 195 198 202 207 213 218 223 229 238 245 254 264 275 284 294 297 299 300 301 303 303 304 306 308 309 309 309 308 310 312 315 318 320 324 325 325 325 325 324 324 323 321 316 310 303 293 279 267
186 190 195 201 205 208 212 219 227 229 237 245 262 277 289 296 300 301 302 302 303 303 303 307 309 310 311 312 311 311 312 316 319 322 325 328 330 329 327 327 327 329 327 323 316 308 297 281 267
182 187 192 197 197 198 202 206 214 221 232 248 272 288 297 304 305 303 306 305 304 304 305 306 310 310 311 313 312 313 315 317 321 324 328 331 334 333 332 331 332 334 333 331 325 316 303 287 269
178 180 183 186 187 189 193 201 201 205 228 262 289 304 311 311 310 309 310 310 309 309 309 308 311 312 312 312 312 314 317 320 324 327 331 334 334 335 335 335 335 337 337 335 330 323 311 291 270
172 173 173 174 176 177 177 181 184 199 241 278 301 313 316 316 313 311 311 311 311 310 311 313 315 315 314 314 314 315 319 322 327 331 334 336 337 338 338 338 338 339 340 340 337 331 322 301 274
164 164 164 162 163 162 164 172 185 203 259 300 312 315 318 318 317 314 313 311 312 312 313 314 316 316 315 315 315 315 318 323 329 333 336 339 340 340 342 342 342 342 343 344 345 342 333 312 277
156 158 160 161 162 167 168 182 195 220 271 309 318 318 317 315 312 309 311 311 311 312 313 314 314 315 317 317 315 315 318 322 328 333 337 340 341 342 343 346 345 346 347 348 351 350 348 331 279
154 157 160 162 166 175 181 189 204 220 270 302 310 314 316 316 311 309 310 310 311 313 315 316 317 318 319 320 318 318 320 323 327 332 336 340 342 344 346 350 349 349 351 352 353 354 357 355 316
152 155 157 162 169 180 183 197 211 226 260 293 308 315 314 314 312 314 317 318 318 319 319 320 320 320 320 319 320 320 321 323 326 330 334 338 342 344 348 351 352 352 353 356 357 358 358 358 334
155 155 159 165 174 179 187 207 214 229 249 283 304 312 314 313 314 317 318 319 321 323 324 324 324 323 322 321 321 322 322 323 325 328 331 335 339 342 345 349 351 353 354 356 359 0 360 360 345
157 159 160 167 174 187 198 204 213 226 253 276 295 309 316 317 318 320 320 320 321 324 326 326 327 327 325 323 323 323 323 324 324 325 329 331 334 337 341 344 346 349 351 353 355 357 358 2 357
157 159 166 171 180 193 202 211 221 230 254 271 290 309 319 322 322 323 324 322 324 326 326 326 326 327 327 325 324 322 323 324 324 324 325 328 329 331 333 338 341 342 346 349 350 352 350 344 337
165 167 171 177 184 194 209 215 221 232 251 270 286 302 311 318 322 324 325 324 324 327 328 328 327 326 325 324 323 322 321 322 322 321 322 323 325 326 326 328 333 335 337 340 342 343 344 342 338
170 172 175 183 189 194 209 217 226 237 254 270 286 298 309 316 321 323 325 326 325 326 327 326 325 325 323 322 321 320 320 320 321 320 319 319 320 321 321 321 323 326 327 329 332 333 332 333 327
Height
5878 5879 5880 5881 5882 5882 5881 5881 5880 5880 5880 5881 5881 5882 5882 5883 5884 5886 5884 5882 5882 5881 5880 5879 5879 5878 5877 5876 5875 5875 5874 5873 5872 5871 5870 5869 5867 5866 5865 5864 5863 5863 5863 5862 5862 5862 5862 5863 5863
5876 5878 5880 5880 5881 5881 5881 5880 5880 5880 5880 5880 5881 5881 5881 5882 5882 5882 5881 5881 5881 5880 5879 5878 5877 5876 5876 5875 5874 5873 5872 5871 5870 5869 5868 5867 5866 5864 5863 5862 5861 5860 5860 5859 5859 5859 5859 5859 5860
5874 5876 5878 5879 5879 5880 5880 5879 5879 5879 5879 5880 5880 5880 5881 5881 5881 5881 5881 5880 5879 5878 5877 5876 5876 5875 5874 5873 5872 5871 5870 5869 5868 5867 5866 5865 5863 5862 5861 5860 5859 5858 5857 5856 5856 5856 5856 5856 5856
5873 5875 5877 5878 5878 5878 5878 5878 5878 5879 5879 5879 5879 5880 5880 5880 5880 5880 5879 5879 5878 5877 5876 5875 5874 5874 5873 5872 5871 5870 5868 5867 5866 5865 5864 5862 5861 5860 5859 5857 5856 5855 5854 5853 5853 5852 5852 5852 5852
5870 5873 5875 5876 5876 5877 5877 5877 5878 5878 5878 5878 5879 5879 5879 5879 5879 5879 5878 5877 5877 5876 5875 5874 5873 5872 5871 5870 5869 5868 5867 5865 5864 5863 5862 5860 5859 5858 5856 5855 5853 5852 5851 5850 5849 5849 5848 5848 5849
5868 5870 5873 5873 5875 5876 5876 5876 5877 5877 5877 5877 5878 5878 5878 5878 5877 5877 5877 5876 5875 5874 5873 5872 5871 5870 5869 5868 5867 5866 5865 5864 5862 5861 5860 5858 5857 5855 5854 5852 5851 5849 5848 5847 5846 5845 5844 5844 5845
5866 5868 5870 5871 5873 5874 5875 5875 5876 5876 5876 5876 5876 5877 5876 5876 5876 5876 5875 5875 5874 5873 5872 5871 5870 5869 5868 5867 5866 5864 5863 5862 5860 5859 5857 5856 5854 5853 5851 5849 5848 5846 5845 5843 5842 5841 5841 5840 5840
5862 5865 5867 5869 5871 5872 5873 5874 5874 5875 5875 5875 5875 5875 5875 5875 5875 5874 5874 5873 5872 5871 5870 5869 5868 5867 5866 5865 5864 5863 5861 5860 5858 5857 5855 5854 5852 5850 5848 5846 5845 5843 5841 5840 5839 5838 5837 5836 5836
5858 5863 5864 5866 5868 5870 5871 5872 5873 5873 5873 5874 5874 5874 5874 5873 5873 5873 5872 5872 5871 5870 5869 5868 5867 5866 5865 5864 5862 5861 5859 5858 5856 5855 5853 5851 5849 5847 5845 5843 5841 5840 5838 5836 5835 5834 5833 5832 5832
5855 5858 5861 5863 5866 5868 5869 5871 5871 5872 5872 5872 5872 5872 5872 5872 5871 5871 5871 5870 5869 5869 5868 5866 5866 5865 5863 5862 5861 5859 5857 5856 5854 5852 5850 5849 5846 5844 5842 5840 5838 5836 5834 5832 5831 5829 5828 5828 5827
5851 5855 5858 5861 5863 5865 5867 5869 5870 5870 5871 5871 5871 5871 5870 5870 5870 5870 5869 5868 5868 5867 5866 5865 5864 5863 5862 5861 5859 5857 5855 5854 5852 5850 5848 5846 5844 5841 5839 5837 5835 5832 5830 5828 5826 5825 5823 5823 5823
5848 5852 5855 5858 5861 5863 5865 5867 5868 5868 5869 5869 5869 5869 5869 5869 5868 5868 5868 5867 5866 5865 5865 5864 5863 5862 5860 5859 5857 5855 5854 5852 5850 5848 5846 5843 5841 5838 5836 5833 5831 5828 5826 5824 5822 5820 5819 5818 5818
5845 5849 5853 5856 5859 5861 5863 5864 5865 5866 5867 5867 5867 5867 5867 5867 5867 5867 5866 5866 5865 5864 5863 5862 5861 5860 5859 5857 5855 5854 5852 5850 5848 5846 5843 5841 5838 5835 5833 5830 5827 5824 5822 5819 5817 5816 5814 5813 5813
5842 5846 5850 5854 5857 5859 5861 5863 5864 5865 5865 5865 5866 5866 5866 5866 5866 5865 5865 5864 5864 5863 5862 5861 5860 5858 5857 5855 5854 5852 5850 5848 5846 5843 5841 5838 5835 5832 5830 5826 5824 5821 5818 5815 5813 5811 5810 5809 5808
5839 5845 5849 5852 5855 5858 5860 5861 5862 5863 5863 5864 5864 5865 5865 5865 5864 5864 5864 5863 5862 5862 5861 5860 5858 5857 5855 5853 5852 5850 5848 5846 5844 5841 5838 5835 5832 5829 5826 5823 5820 5817 5814 5811 5809 5807 5805 5804 5803
5838 5843 5847 5851 5853 5856 5860 5860 5861 5861 5862 5862 5863 5863 5863 5863 5863 5863 5862 5862 5861 5860 5859 5858 5856 5855 5853 5852 5850 5848 5846 5844 5841 5839 5836 5833 5830 5826 5823 5820 5817 5814 5810 5807 5805 5803 5801 5800 5799
5836 5841 5845 5849 5852 5854 5857 5858 5859 5860 5861 5861 5861 5862 5862 5862 5862 5862 5861 5861 5860 5859 5858 5856 5855 5853 5852 5850 5848 5846 5844 5842 5839 5836 5833 5830 5827 5824 5820 5817 5814 5810 5807 5804 5801 5799 5797 5796 5795
5836 5840 5844 5847 5850 5853 5855 5856 5858 5858 5859 5860 5860 5861 5861 5861 5861 5860 5860 5859 5858 5857 5856 5855 5853 5852 5850 5848 5847 5845 5842 5840 5837 5834 5831 5828 5825 5821 5818 5814 5811 5808 5804 5801 5798 5796 5794 5793 5792
5834 5839 5843 5846 5849 5852 5854 5855 5856 5857 5858 5859 5859 5859 5860 5859 5859 5859 5858 5858 5857 5856 5854 5853 5852 5850 5848 5847 5845 5843 5841 5838 5835 5833 5829 5826 5822 5819 5815 5812 5809 5805 5802 5799 5796 5793 5791 5790 5789
5834 5839 5842 5846 5848 5851 5853 5854 5856 5856 5857 5858 5858 5858 5858 5858 5858 5857 5857 5856 5855 5854 5853 5852 5850 5849 5847 5845 5843 5841 5839 5836 5833 5831 5827 5824 5821 5817 5814 5810 5807 5804 5800 5797 5794 5791 5789 5787 5787
5835 5839 5842 5845 5848 5850 5853 5854 5855 5856 5857 5857 5858 5858 5857 5857 5856 5856 5855 5854 5854 5853 5851 5850 5849 5847 5845 5843 5841 5839 5837 5835 5832 5829 5826 5822 5819 5815 5812 5808 5805 5802 5799 5795 5792 5789 5787 5786 5785
5836 5839 5842 5845 5848 5851 5853 5854 5855 5856 5857 5857 5857 5856 5856 5856 5855 5854 5854 5853 5852 5851 5850 5848 5847 5845 5843 5841 5840 5837 5836 5833 5830 5828 5824 5821 5818 5814 5811 5807 5804 5801 5798 5794 5791 5789 5786 5785 5784
5836 5840 5843 5846 5849 5851 5853 5855 5856 5856 5856 5856 5856 5855 5855 5854 5854 5853 5853 5852 5851 5850 5848 5847 5845 5844 5842 5840 5838 5836 5834 5831 5829 5826 5823 5820 5817 5813 5810 5806 5803 5800 5797 5794 5791 5789 5787 5785 5784
5838 5841 5844 5846 5849 5852 5853 5855 5855 5855 5856 5855 5855 5854 5854 5853 5853 5852 5851 5850 5849 5848 5847 5845 5844 5842 5840 5838 5836 5834 5832 5830 5828 5825 5822 5819 5816 5813 5809 5806 5803 5799 5797 5794 5791 5789 5787 5786 5785
5839 5842 5845 5847 5849 5851 5853 5854 5855 5854 5855 5854 5854 5853 5852 5852 5851 5850 5850 5849 5848 5846 5845 5843 5842 5840 5838 5836 5835 5833 5831 5829 5826 5824 5821 5818 5815 5812 5809 5806 5802 5800 5797 5794 5792 5789 5788 5786 5786
5839 5843 5847 5849 5850 5851 5852 5853 5854 5853 5853 5853 5852 5852 5851 5850 5850 5849 5848 5847 5846 5845 5844 5842 5840 5839 5837 5835 5833 5831 5829 5827 5825 5823 5820 5818 5815 5812 5809 5806 5803 5800 5797 5795 5792 5790 5789 5787 5786
5840 5842 5845 5848 5849 5851 5851 5852 5852 5852 5852 5851 5851 5850 5850 5849 5848 5847 5847 5846 5845 5843 5842 5840 5839 5837 5835 5833 5832 5830 5828 5826 5824 5821 5819 5817 5814 5811 5809 5806 5803 5800 5798 5795 5793 5791 5789 5788 5787
5841 5842 5845 5847 5848 5850 5850 5850 5851 5850 5850 5850 5849 5849 5848 5847 5847 5846 5845 5844 5843 5842 5840 5839 5837 5835 5833 5832 5830 5828 5826 5824 5822 5820 5818 5815 5813 5811 5808 5806 5803 5800 5798 5796 5793 5792 5790 5788 5787
5841 5843 5844 5846 5847 5849 5849 5851 5849 5849 5849 5848 5848 5847 5847 5846 5845 5844 5843 5842 5841 5840 5839 5837 5835 5833 5831 5830 5828 5826 5824 5822 5820 5818 5816 5814 5812 5810 5807 5805 5802 5800 5798 5796 5794 5792 5790 5789 5787
5840 5842 5843 5845 5846 5846 5847 5850 5847 5847 5847 5846 5846 5846 5845 5844 5844 5843 5842 5841 5839 5838 5837 5835 5833 5831 5829 5828 5826 5824 5822 5820 5818 5816 5814 5812 5810 5808 5806 5804 5801 5799 5797 5795 5793 5792 5790 5789 5787